Regional Weather Roundup
Issued by NWS

Home | Current Version | Previous Version | Graphics & Text | Print | Product List | Glossary On
Versions: 1 2 3 4 5 6 7 8 9 10 11 12 13 14 15 16 17 18 19 20 21 22 23 24 25 26 27 28 29 30 31 32 33 34 35 36 37 38 39 40 41 42 43 44 45 46 47 48 49 50
000
ASUS43 KDMX 311407
RWRIA

WEATHER ROUNDUP FOR IOWA
NATIONAL WEATHER SERVICE DES MOINES IA
900 AM CDT MON AUG 31 2015

NOTE: "FAIR" INDICATES FEW OR NO CLOUDS BELOW 12,000 FEET WITH NO
SIGNIFICANT WEATHER AND/OR OBSTRUCTIONS TO VISIBILITY.

* - THESE STATIONS ARE NOT NWS STATIONS...THUS NOT UNDER NWS
QUALITY CONTROL.  THEY ALSO DO NOT REPORT WEATHER SUCH
AS PRECIPITATION OR FOG.

IAZ001>003-012>014-020>022-031>034-043>046-311500-
   NORTHWEST IOWA

CITY           SKY/WX    TMP DP  RH WIND       PRES   REMARKS
CARROLL *      MOSUNNY   66  66 100 CALM      29.98S FOG
CHEROKEE *     FOG       66  66 100 S8        29.96S VSB 1
DENISON *        N/A     70  68  94 VRB6      29.96S
LE MARS *      CLOUDY    68  68 100 S10       29.94S FOG
ORANGE CITY *  FOG       66  66 100 S8        29.94S VSB 1/2
SHELDON *      FOG       66  66 100 S9        29.93S VSB 1
SIOUX CITY     FOG       67  64  90 S7        29.94R VSB 1/4
SPENCER        PTSUNNY   67  65  93 S9        29.96S FOG
STORM LAKE *   FOG       66  66 100 S8        29.98S VSB 0
$$

IAZ055>058-069>071-079>083-090>094-311500-
   SOUTHWEST IOWA

CITY           SKY/WX    TMP DP  RH WIND       PRES   REMARKS
ATLANTIC *     SUNNY     68  68 100 CALM      29.98S FOG
AUDUBON *      SUNNY     66  64  94 CALM      30.00S FOG
CLARINDA *     PTSUNNY   70  70 100 CALM      30.00S FOG
COUNCIL BLFS * PTSUNNY   68  68 100 SE6       29.98R FOG
CRESTON *      PTSUNNY   72  70  94 S7        30.01S FOG
HARLAN  *      PTSUNNY   66 N/A N/A CALM      30.02R FOG
LAMONI         SUNNY     73  70  90 SE8       30.00S FOG
RED OAK *      SUNNY     70  70 100 CALM      29.98S FOG
SHENANDOAH *   MOSUNNY   72  72 100 SE5       29.98S FOG
$$

IAZ047>049-059>061-072>074-084-311500-
   CENTRAL IOWA

CITY           SKY/WX    TMP DP  RH WIND       PRES   REMARKS
AMES           MOSUNNY   67  67 100 SE7       30.00S FOG
ANKENY *       SUNNY     70  70 100 S6        29.99S
CHARITON *     SUNNY     73  72  94 S5        30.01S
DES MOINES     SUNNY     71  67  87 S9        29.99R
GRINNELL*      SUNNY     70  68  94 SE7       30.03R FOG
KNOXVILLE *    SUNNY     70  68  94 S8        30.00R FOG
MARSHALLTOWN   SUNNY     67  66  97 SE8       30.00S FOG
PELLA *        SUNNY     72  72 100 SE8       30.02S FOG
PERRY *          N/A     70  68  94 SE6       29.99S FOG
$$

IAZ004>006-015-016-023>025-035-036-311500-
   NORTH CENTRAL IOWA

CITY           SKY/WX    TMP DP  RH WIND       PRES   REMARKS
ALGONA *       MOSUNNY   68  68 100 S10G16    29.98S FOG
CLARION *      MOSUNNY   68  66  94 S8        29.99S
ESTHERVILLE    FOG       65  65 100 S13       29.96R VSB 1/2
FORT DODGE *   SUNNY     68  64  88 S7        29.99F
MASON CITY     CLOUDY    66  66 100 S8        30.01S FOG
FOREST CITY *  PTSUNNY   66  66 100 SE7       29.99S FOG
IOWA FALLS *     N/A     66  66 100 SE7       30.02S FOG
$$

IAZ007>011-017>019-026>030-037>042-050>054-066-311500-
   NORTHEAST IOWA

CITY           SKY/WX    TMP DP  RH WIND       PRES   REMARKS
CEDAR RAPIDS   SUNNY     69  69 100 SE8       30.03S FOG
CHARLES CITY * FOG       66  66 100 S8        30.02S VSB 1
CLINTON *      SUNNY     66  66 100 SE6       30.08S
DECORAH *      MOSUNNY   66  66 100 VRB6      30.02S FOG
DUBUQUE        SUNNY     68  67  96 S7        30.06S FOG
MONTICELLO *   SUNNY     66  66 100 S6        30.04S FOG
OELWEIN *        N/A     66  66 100 S8        30.04S FOG
WATERLOO       PTSUNNY   66  65  96 SE6       30.01S FOG
$$

IAZ064-065-067-068-078-311500-
   EAST CENTRAL IOWA

CITY           SKY/WX    TMP DP  RH WIND       PRES   REMARKS
DAVENPORT      SUNNY     70  68  93 SE5       30.06S FOG
IOWA CITY      SUNNY     69  67  93 SE5       30.05R FOG
MT. PLEASANT * SUNNY     75  70  83 SE7       30.04R HAZE
MUSCATINE *    SUNNY     68  66  94 CALM      30.04F FOG
QUAD CITIES    SUNNY     69  65  86 E5        30.04F FOG
$$

IAZ062-063-075>077-085>089-095>099-311500-
   SOUTHEAST IOWA

CITY           SKY/WX    TMP DP  RH WIND       PRES   REMARKS
BURLINGTON     MOSUNNY   72  70  93 S3        30.04S FOG
FAIRFIELD *    SUNNY     73  68  83 S7        30.03S
FORT MADISON * SUNNY     72  72 100 S3        30.05S FOG
KEOKUK *       SUNNY     75  72  88 SE3       30.03S
OSKALOOSA *      N/A     70  68  94 S6        30.03S FOG
CENTERVILLE *  SUNNY     72  72 100 SE6       30.04R
OTTUMWA        SUNNY     72  71  97 S12       30.01S FOG
WASHINGTON *     N/A    N/A N/A N/A MISG        N/A
$$

ABBREVIATIONS USED IN REMARKS
   TC - TEMPERATURES IN CELSIUS
  WCI - WIND CHILL INDEX
   HX - HEAT INDEX
  VSB - VISIBILITY
$$



USA.gov is the U.S. government's official web portal to all federal, state and local government web resources and services.